Time,TemperatureF,DewpointF,PressureIn,WindDirection,WindDirectionDegrees,WindSpeedMPH,WindSpeedGustMPH,Humidity,HourlyPrecipIn,Conditions,Clouds,dailyrainin,SoftwareType,DateUTC
2013-02-25 00:02:00,33.0,21.0,29.97,ENE,62,9.0,11.0,60,0.00,,,0.00,,2013-02-25 06:02:00,
2013-02-25 00:11:00,33.0,21.0,29.97,ENE,62,9.0,11.0,60,0.00,,,0.00,,2013-02-25 06:11:00,
2013-02-25 00:21:00,33.0,21.0,29.98,NE,54,8.0,12.0,61,0.00,,,0.00,,2013-02-25 06:21:00,
2013-02-25 00:31:00,32.0,20.0,29.96,ENE,60,8.0,11.0,61,0.00,,,0.00,,2013-02-25 06:31:00,
2013-02-25 00:41:00,32.0,20.0,29.96,ENE,60,8.0,11.0,61,0.00,,,0.00,,2013-02-25 06:41:00,
2013-02-25 00:52:00,32.0,20.0,29.98,ENE,58,9.0,11.0,62,0.00,,,0.00,,2013-02-25 06:52:00,
2013-02-25 01:01:00,32.0,20.0,29.99,NE,55,7.0,10.0,62,0.00,,,0.00,,2013-02-25 07:01:00,
2013-02-25 01:11:00,32.0,20.0,29.97,ENE,65,8.0,10.0,62,0.00,,,0.00,,2013-02-25 07:11:00,
2013-02-25 01:21:00,32.0,20.0,29.97,ENE,65,8.0,10.0,62,0.00,,,0.00,,2013-02-25 07:21:00,
2013-02-25 01:31:00,31.0,20.0,29.96,NE,40,5.0,10.0,63,0.00,,,0.00,,2013-02-25 07:31:00,
2013-02-25 01:41:00,31.0,20.0,29.96,NE,40,5.0,10.0,63,0.00,,,0.00,,2013-02-25 07:41:00,
2013-02-25 01:51:00,31.0,20.0,29.96,NE,36,5.0,11.0,63,0.00,,,0.00,,2013-02-25 07:51:00,
2013-02-25 02:01:00,31.0,20.0,29.97,NNE,26,10.0,10.0,63,0.00,,,0.00,,2013-02-25 08:01:00,
2013-02-25 02:11:00,31.0,20.0,29.96,NE,46,6.0,8.0,63,0.00,,,0.00,,2013-02-25 08:11:00,
2013-02-25 02:21:00,31.0,20.0,29.96,NE,46,6.0,8.0,63,0.00,,,0.00,,2013-02-25 08:21:00,
2013-02-25 02:31:00,31.0,20.0,29.98,ENE,64,8.0,9.0,64,0.00,,,0.00,,2013-02-25 08:31:00,
2013-02-25 02:41:00,31.0,20.0,29.98,ENE,64,8.0,9.0,64,0.00,,,0.00,,2013-02-25 08:41:00,
2013-02-25 02:52:00,31.0,20.0,29.98,ENE,60,7.0,9.0,64,0.00,,,0.00,,2013-02-25 08:52:00,
2013-02-25 03:01:00,31.0,21.0,29.98,ENE,58,5.0,9.0,65,0.00,,,0.00,,2013-02-25 09:01:00,
2013-02-25 03:12:00,31.0,21.0,29.98,ENE,58,5.0,9.0,65,0.00,,,0.00,,2013-02-25 09:12:00,
2013-02-25 03:21:00,31.0,21.0,29.97,ENE,62,9.0,10.0,66,0.00,,,0.00,,2013-02-25 09:21:00,
2013-02-25 03:31:00,31.0,21.0,29.97,ENE,62,6.0,10.0,66,0.00,,,0.00,,2013-02-25 09:31:00,
2013-02-25 03:41:00,31.0,21.0,29.97,ENE,62,6.0,10.0,66,0.00,,,0.00,,2013-02-25 09:41:00,
2013-02-25 03:51:00,30.0,20.0,29.98,ENE,60,11.0,11.0,66,0.00,,,0.00,,2013-02-25 09:51:00,
2013-02-25 04:01:00,30.0,20.0,29.95,ENE,63,10.0,11.0,67,0.00,,,0.00,,2013-02-25 10:01:00,
2013-02-25 04:11:00,30.0,20.0,29.96,NE,56,10.0,12.0,67,0.00,,,0.00,,2013-02-25 10:11:00,
2013-02-25 04:21:00,30.0,20.0,29.96,NE,56,10.0,12.0,67,0.00,,,0.00,,2013-02-25 10:21:00,
2013-02-25 04:31:00,30.0,20.0,29.95,ENE,59,7.0,13.0,67,0.00,,,0.00,,2013-02-25 10:31:00,
2013-02-25 04:42:00,30.0,20.0,29.95,ENE,59,7.0,13.0,67,0.00,,,0.00,,2013-02-25 10:42:00,
2013-02-25 04:52:00,30.0,21.0,29.95,ENE,63,10.0,12.0,68,0.00,,,0.00,,2013-02-25 10:52:00,
2013-02-25 05:01:00,30.0,21.0,29.96,NE,37,10.0,13.0,68,0.00,,,0.00,,2013-02-25 11:01:00,
2013-02-25 05:11:00,30.0,21.0,29.96,NE,37,10.0,13.0,68,0.00,,,0.00,,2013-02-25 11:11:00,
2013-02-25 05:21:00,30.0,21.0,29.95,ENE,61,11.0,11.0,68,0.00,,,0.00,,2013-02-25 11:21:00,
2013-02-25 05:32:00,29.0,20.0,29.96,ENE,65,8.0,10.0,69,0.00,,,0.00,,2013-02-25 11:32:00,
2013-02-25 05:42:00,29.0,20.0,29.96,ENE,65,8.0,10.0,69,0.00,,,0.00,,2013-02-25 11:42:00,
2013-02-25 05:52:00,29.0,20.0,29.97,ENE,66,8.0,10.0,69,0.00,,,0.00,,2013-02-25 11:52:00,
2013-02-25 06:01:00,29.0,20.0,29.96,NNE,27,7.0,10.0,70,0.00,,,0.00,,2013-02-25 12:01:00,
2013-02-25 06:11:00,29.0,20.0,29.96,NNE,27,7.0,10.0,70,0.00,,,0.00,,2013-02-25 12:11:00,
2013-02-25 06:21:00,29.0,20.0,29.98,NNE,33,8.0,8.0,70,0.00,,,0.00,,2013-02-25 12:21:00,
2013-02-25 06:32:00,29.0,21.0,29.98,NNE,28,7.0,9.0,71,0.00,,,0.00,,2013-02-25 12:32:00,
2013-02-25 06:42:00,29.0,21.0,29.98,NNE,28,7.0,9.0,71,0.00,,,0.00,,2013-02-25 12:42:00,
2013-02-25 06:53:00,28.0,20.0,29.99,NNE,18,4.0,5.0,71,0.00,,,0.00,,2013-02-25 12:53:00,
2013-02-25 07:02:00,28.0,20.0,29.97,NNE,29,4.0,8.0,72,0.00,,,0.00,,2013-02-25 13:02:00,
2013-02-25 07:12:00,28.0,20.0,29.97,NNE,29,4.0,8.0,72,0.00,,,0.00,,2013-02-25 13:12:00,
2013-02-25 07:22:00,28.0,20.0,29.99,NNE,32,6.0,6.0,73,0.00,,,0.00,,2013-02-25 13:22:00,
2013-02-25 07:32:00,28.0,20.0,29.97,NNE,24,6.0,8.0,73,0.00,,,0.00,,2013-02-25 13:32:00,
2013-02-25 07:42:00,28.0,20.0,29.97,NNE,24,6.0,8.0,73,0.00,,,0.00,,2013-02-25 13:42:00,
2013-02-25 07:52:00,28.0,20.0,29.98,North,10,5.0,8.0,72,0.00,,,0.00,,2013-02-25 13:52:00,
2013-02-25 08:03:00,28.0,20.0,29.97,NNE,13,5.0,7.0,72,0.00,,,0.00,,2013-02-25 14:03:00,
2013-02-25 08:17:00,28.0,20.0,29.97,NNE,13,5.0,7.0,72,0.00,,,0.00,,2013-02-25 14:17:00,
2013-02-25 08:32:00,29.0,21.0,29.99,NNE,20,6.0,8.0,72,0.00,,,0.00,,2013-02-25 14:32:00,
2013-02-25 08:42:00,29.0,21.0,29.99,NNE,20,6.0,8.0,72,0.00,,,0.00,,2013-02-25 14:42:00,
2013-02-25 08:52:00,29.0,21.0,29.99,NNE,24,7.0,11.0,72,0.00,,,0.00,,2013-02-25 14:52:00,
2013-02-25 09:02:00,30.0,22.0,29.96,NNE,33,8.0,13.0,72,0.00,,,0.00,,2013-02-25 15:02:00,
2013-02-25 09:11:00,30.0,22.0,29.96,NNE,33,8.0,13.0,72,0.00,,,0.00,,2013-02-25 15:11:00,
2013-02-25 09:21:00,31.0,23.0,29.97,NE,35,9.0,11.0,71,0.00,,,0.00,,2013-02-25 15:21:00,
2013-02-25 09:32:00,32.0,23.0,29.97,ENE,61,10.0,10.0,70,0.00,,,0.00,,2013-02-25 15:32:00,
2013-02-25 09:41:00,32.0,23.0,29.97,ENE,61,10.0,10.0,70,0.00,,,0.00,,2013-02-25 15:41:00,
2013-02-25 09:51:00,32.0,23.0,29.98,NE,48,6.0,8.0,69,0.00,,,0.00,,2013-02-25 15:51:00,
2013-02-25 10:01:00,33.0,24.0,29.96,NNE,31,9.0,12.0,68,0.00,,,0.00,,2013-02-25 16:01:00,
2013-02-25 10:11:00,33.0,24.0,29.96,NNE,31,9.0,12.0,68,0.00,,,0.00,,2013-02-25 16:11:00,
2013-02-25 10:21:00,33.0,23.0,29.97,NE,55,6.0,12.0,67,0.00,,,0.00,,2013-02-25 16:21:00,
2013-02-25 10:31:00,34.0,24.0,29.98,NE,34,6.0,10.0,66,0.00,,,0.00,,2013-02-25 16:31:00,
2013-02-25 10:42:00,34.0,24.0,29.98,NE,34,6.0,10.0,66,0.00,,,0.00,,2013-02-25 16:42:00,
2013-02-25 10:51:00,34.0,24.0,29.97,NNE,24,5.0,8.0,66,0.00,,,0.00,,2013-02-25 16:51:00,
2013-02-25 11:01:00,35.0,24.0,29.97,NNE,14,7.0,8.0,65,0.00,,,0.00,,2013-02-25 17:01:00,
2013-02-25 11:11:00,35.0,24.0,29.97,NNE,14,7.0,8.0,65,0.00,,,0.00,,2013-02-25 17:11:00,
2013-02-25 11:21:00,34.0,23.0,29.96,North,7,10.0,12.0,65,0.00,,,0.00,,2013-02-25 17:21:00,
2013-02-25 11:31:00,34.0,24.0,29.96,North,8,7.0,9.0,66,0.00,,,0.00,,2013-02-25 17:31:00,
2013-02-25 11:41:00,34.0,24.0,29.96,North,8,7.0,9.0,66,0.00,,,0.00,,2013-02-25 17:41:00,
2013-02-25 11:52:00,35.0,25.0,29.98,NNE,28,5.0,9.0,66,0.00,,,0.00,,2013-02-25 17:52:00,
2013-02-25 12:01:00,35.0,25.0,29.96,NNE,28,6.0,8.0,66,0.00,,,0.00,,2013-02-25 18:01:00,
2013-02-25 12:12:00,35.0,25.0,29.96,NNE,28,6.0,8.0,66,0.00,,,0.00,,2013-02-25 18:12:00,
2013-02-25 12:21:00,35.0,24.0,29.96,NNE,22,7.0,9.0,65,0.00,,,0.00,,2013-02-25 18:21:00,
2013-02-25 12:32:00,35.0,24.0,29.95,NNE,14,9.0,13.0,65,0.00,,,0.00,,2013-02-25 18:32:00,
2013-02-25 12:41:00,35.0,24.0,29.95,NNE,14,9.0,13.0,65,0.00,,,0.00,,2013-02-25 18:41:00,
2013-02-25 12:51:00,35.0,24.0,29.93,North,11,12.0,12.0,65,0.00,,,0.00,,2013-02-25 18:51:00,
2013-02-25 13:01:00,35.0,24.0,29.94,NNE,22,13.0,16.0,64,0.00,,,0.00,,2013-02-25 19:01:00,
2013-02-25 13:11:00,35.0,24.0,29.94,NNE,22,13.0,16.0,64,0.00,,,0.00,,2013-02-25 19:11:00,
2013-02-25 13:21:00,36.0,25.0,29.92,NNE,19,7.0,13.0,63,0.00,,,0.00,,2013-02-25 19:21:00,
2013-02-25 13:31:00,36.0,25.0,29.91,NNE,18,7.0,11.0,63,0.00,,,0.00,,2013-02-25 19:31:00,
2013-02-25 13:41:00,36.0,25.0,29.91,NNE,18,7.0,11.0,63,0.00,,,0.00,,2013-02-25 19:41:00,
2013-02-25 13:52:00,37.0,26.0,29.92,North,11,10.0,15.0,63,0.00,,,0.00,,2013-02-25 19:52:00,
2013-02-25 14:01:00,37.0,25.0,29.90,NNE,21,14.0,20.0,62,0.00,,,0.00,,2013-02-25 20:01:00,
2013-02-25 14:11:00,37.0,25.0,29.90,NNE,21,14.0,20.0,62,0.00,,,0.00,,2013-02-25 20:11:00,
2013-02-25 14:21:00,36.0,25.0,29.89,NNE,18,12.0,16.0,63,0.00,,,0.00,,2013-02-25 20:21:00,
2013-02-25 14:31:00,36.0,25.0,29.88,NNE,19,14.0,19.0,64,0.00,,,0.00,,2013-02-25 20:31:00,
2013-02-25 14:41:00,36.0,25.0,29.88,NNE,19,14.0,19.0,64,0.00,,,0.00,,2013-02-25 20:41:00,
2013-02-25 14:52:00,36.0,25.0,29.88,NNE,16,11.0,17.0,64,0.00,,,0.00,,2013-02-25 20:52:00,
2013-02-25 15:01:00,36.0,25.0,29.87,NNE,14,14.0,15.0,64,0.00,,,0.00,,2013-02-25 21:01:00,
2013-02-25 15:11:00,36.0,25.0,29.87,NNE,14,14.0,15.0,64,0.00,,,0.00,,2013-02-25 21:11:00,
2013-02-25 15:21:00,36.0,25.0,29.88,NNE,17,11.0,15.0,65,0.00,,,0.00,,2013-02-25 21:21:00,
2013-02-25 15:31:00,36.0,25.0,29.88,North,9,15.0,17.0,65,0.00,,,0.00,,2013-02-25 21:31:00,
2013-02-25 15:42:00,36.0,25.0,29.88,North,9,15.0,17.0,65,0.00,,,0.00,,2013-02-25 21:42:00,
2013-02-25 15:51:00,36.0,25.0,29.89,NNE,27,7.0,10.0,65,0.00,,,0.00,,2013-02-25 21:51:00,
2013-02-25 16:01:00,36.0,25.0,29.90,NNE,23,10.0,11.0,65,0.00,,,0.00,,2013-02-25 22:01:00,
2013-02-25 16:11:00,36.0,25.0,29.90,NNE,23,10.0,11.0,65,0.00,,,0.00,,2013-02-25 22:11:00,
2013-02-25 16:21:00,36.0,26.0,29.88,NE,34,10.0,11.0,66,0.00,,,0.00,,2013-02-25 22:21:00,
2013-02-25 16:32:00,36.0,26.0,29.89,NNE,27,13.0,14.0,66,0.00,,,0.00,,2013-02-25 22:32:00,
2013-02-25 16:42:00,36.0,26.0,29.89,NNE,27,13.0,14.0,66,0.00,,,0.00,,2013-02-25 22:42:00,
2013-02-25 16:52:00,36.0,26.0,29.89,NNE,32,9.0,12.0,66,0.00,,,0.00,,2013-02-25 22:52:00,
2013-02-25 17:01:00,36.0,25.0,29.88,NE,40,12.0,13.0,65,0.00,,,0.00,,2013-02-25 23:01:00,
2013-02-25 17:11:00,36.0,25.0,29.88,NE,40,12.0,13.0,65,0.00,,,0.00,,2013-02-25 23:11:00,
2013-02-25 17:22:00,36.0,25.0,29.86,NNE,25,10.0,17.0,65,0.00,,,0.00,,2013-02-25 23:22:00,
2013-02-25 17:31:00,36.0,25.0,29.86,NNE,31,8.0,18.0,65,0.00,,,0.00,,2013-02-25 23:31:00,
2013-02-25 17:41:00,36.0,25.0,29.86,NNE,31,8.0,18.0,65,0.00,,,0.00,,2013-02-25 23:41:00,
2013-02-25 17:52:00,36.0,26.0,29.87,ENE,59,19.0,23.0,68,0.00,,,0.00,,2013-02-25 23:52:00,
2013-02-25 18:01:00,34.0,28.0,29.88,NNE,27,11.0,13.0,79,0.00,,,0.00,,2013-02-26 00:01:00,
2013-02-25 18:11:00,34.0,28.0,29.88,NNE,27,11.0,13.0,79,0.00,,,0.00,,2013-02-26 00:11:00,
2013-02-25 18:21:00,33.0,28.0,29.86,NE,53,8.0,14.0,83,0.00,,,0.00,,2013-02-26 00:21:00,
2013-02-25 18:32:00,33.0,29.0,29.85,NE,34,18.0,19.0,85,0.00,,,0.00,,2013-02-26 00:32:00,
2013-02-25 18:41:00,33.0,29.0,29.85,NE,34,18.0,19.0,85,0.00,,,0.00,,2013-02-26 00:41:00,
2013-02-25 18:52:00,33.0,29.0,29.85,NE,34,18.0,19.0,85,0.00,,,0.00,,2013-02-26 00:52:00,
2013-02-25 19:02:00,33.0,29.0,29.81,NNE,26,13.0,21.0,85,0.01,,,0.01,,2013-02-26 01:02:00,
2013-02-25 19:11:00,33.0,29.0,29.81,NNE,26,13.0,21.0,85,0.01,,,0.01,,2013-02-26 01:11:00,
2013-02-25 19:21:00,34.0,30.0,29.79,NNE,19,10.0,25.0,85,0.01,,,0.01,,2013-02-26 01:21:00,
2013-02-25 19:31:00,34.0,30.0,29.79,NE,35,9.0,21.0,84,0.01,,,0.01,,2013-02-26 01:31:00,
2013-02-25 19:41:00,34.0,30.0,29.79,NE,35,9.0,21.0,84,0.01,,,0.01,,2013-02-26 01:41:00,
2013-02-25 19:52:00,34.0,29.0,29.77,NNE,21,9.0,18.0,82,0.00,,,0.01,,2013-02-26 01:52:00,
2013-02-25 20:01:00,35.0,29.0,29.77,NNE,32,12.0,20.0,79,0.00,,,0.01,,2013-02-26 02:01:00,
2013-02-25 20:11:00,35.0,29.0,29.77,NNE,32,12.0,20.0,79,0.00,,,0.01,,2013-02-26 02:11:00,
2013-02-25 20:21:00,35.0,29.0,29.76,NNE,23,10.0,21.0,77,0.00,,,0.01,,2013-02-26 02:21:00,
2013-02-25 20:32:00,35.0,28.0,29.78,NNE,17,11.0,17.0,75,0.00,,,0.01,,2013-02-26 02:32:00,
2013-02-25 20:41:00,35.0,28.0,29.78,NNE,17,11.0,17.0,75,0.00,,,0.01,,2013-02-26 02:41:00,
2013-02-25 20:52:00,36.0,28.0,29.80,NE,37,13.0,18.0,73,0.00,,,0.01,,2013-02-26 02:52:00,
2013-02-25 21:01:00,36.0,28.0,29.82,ENE,59,9.0,11.0,71,0.00,,,0.01,,2013-02-26 03:01:00,
2013-02-25 21:11:00,36.0,28.0,29.82,ENE,59,9.0,11.0,71,0.00,,,0.01,,2013-02-26 03:11:00,
2013-02-25 21:21:00,36.0,27.0,29.83,NNE,33,10.0,17.0,70,0.00,,,0.01,,2013-02-26 03:21:00,
2013-02-25 21:32:00,36.0,27.0,29.80,NNE,25,10.0,14.0,70,0.00,,,0.01,,2013-02-26 03:32:00,
2013-02-25 21:41:00,36.0,27.0,29.80,NNE,25,10.0,14.0,70,0.00,,,0.01,,2013-02-26 03:41:00,
2013-02-25 21:52:00,36.0,27.0,29.79,NNE,26,9.0,14.0,69,0.00,,,0.01,,2013-02-26 03:52:00,
2013-02-25 22:01:00,36.0,27.0,29.78,NNE,19,7.0,11.0,70,0.00,,,0.01,,2013-02-26 04:01:00,
2013-02-25 22:11:00,36.0,27.0,29.78,NNE,19,7.0,11.0,70,0.00,,,0.01,,2013-02-26 04:11:00,
2013-02-25 22:21:00,35.0,27.0,29.80,NNE,29,10.0,12.0,71,0.00,,,0.01,,2013-02-26 04:21:00,
2013-02-25 22:32:00,35.0,27.0,29.79,NNE,21,8.0,13.0,72,0.00,,,0.01,,2013-02-26 04:32:00,
2013-02-25 22:42:00,35.0,27.0,29.79,NNE,21,8.0,13.0,72,0.00,,,0.01,,2013-02-26 04:42:00,
2013-02-25 22:51:00,35.0,27.0,29.77,NNE,29,6.0,12.0,72,0.00,,,0.01,,2013-02-26 04:51:00,
2013-02-25 23:01:00,35.0,27.0,29.77,NNE,21,9.0,15.0,73,0.00,,,0.01,,2013-02-26 05:01:00,
2013-02-25 23:11:00,34.0,27.0,29.76,NNE,23,11.0,14.0,76,0.00,,,0.01,,2013-02-26 05:11:00,
2013-02-25 23:21:00,34.0,27.0,29.76,NNE,23,11.0,14.0,76,0.00,,,0.01,,2013-02-26 05:21:00,
2013-02-25 23:31:00,33.0,28.0,29.75,North,10,15.0,15.0,82,0.00,,,0.01,,2013-02-26 05:31:00,
2013-02-25 23:42:00,33.0,28.0,29.75,North,10,15.0,15.0,82,0.00,,,0.01,,2013-02-26 05:42:00,
2013-02-25 23:52:00,32.0,28.0,29.75,NNE,12,10.0,14.0,85,0.00,,,0.01,,2013-02-26 05:52:00,